Find Starlink 30529

NORAD ID: 58047 Int'l Des: 2023-156 Owner: SPXS Country: US Constellation: starlink operational
LEOCIRCULAR

实时位置

正在加载3D地球...

关于 Starlink 30529

正在加载描述...

即将过境

Passes for default location (London). Set your location on the main map for personalized predictions.

高度历史

Loading altitude history...

两行轨道根数

1 58047U 23156V 26126.39671123 -.00000539 00000-0 -60819-5 0 9998
2 58047 53.1631 260.4376 0001399 97.2096 262.9064 15.30182706143817
Epoch: May 6, 2026 • Age: 21 hours

当前状态

高度 479.7 km
速度 7.63 km/s
星下点 47.59°N, 6.88°W
发射日期 Oct 9, 2023
运行时间 2.5 years
类型 internet

技术详情

分类 Payload
质量 730.00 kg
干质量 700.00 kg
总质量 730.00 kg
长度 0.30 m
直径 4.10 m
跨度 29.00 m
形状 Box + pan
制造商 SPXS
平台类型 Starlink V2M
阶段状态 In Orbit
所有者/国家 SPXS/US

Most Searched